TimeEDT,TemperatureF,Dew PointF,Humidity,Sea Level PressureIn,VisibilityMPH,Wind Direction,Wind SpeedMPH,Gust SpeedMPH,PrecipitationIn,Events,Conditions,WindDirDegrees,DateUTC
12:53 AM,28.0,23.0,81,30.04,10.0,ENE,4.6,-,N/A,,Clear,60,2013-03-24 04:53:00
1:53 AM,28.0,23.0,81,30.02,10.0,Calm,Calm,-,N/A,,Clear,0,2013-03-24 05:53:00
2:53 AM,25.0,21.9,88,30.05,10.0,SW,3.5,-,N/A,,Clear,220,2013-03-24 06:53:00
3:53 AM,26.1,23.0,88,30.04,10.0,North,3.5,-,N/A,,Clear,360,2013-03-24 07:53:00
4:53 AM,26.1,23.0,88,30.04,10.0,Calm,Calm,-,N/A,,Clear,0,2013-03-24 08:53:00
5:53 AM,25.0,23.0,92,30.01,10.0,NNE,3.5,-,N/A,,Clear,20,2013-03-24 09:53:00
6:53 AM,26.1,23.0,88,30.02,10.0,Calm,Calm,-,N/A,,Clear,0,2013-03-24 10:53:00
7:53 AM,26.1,23.0,88,30.01,10.0,NNE,4.6,-,N/A,,Clear,30,2013-03-24 11:53:00
8:53 AM,28.0,24.1,85,30.00,10.0,NE,5.8,-,N/A,,Clear,40,2013-03-24 12:53:00
9:53 AM,30.0,26.1,85,29.99,10.0,NE,4.6,-,N/A,,Clear,50,2013-03-24 13:53:00
10:53 AM,32.0,25.0,75,29.95,10.0,NE,10.4,-,N/A,,Clear,50,2013-03-24 14:53:00
11:53 AM,33.1,26.1,75,29.92,10.0,NE,9.2,18.4,N/A,,Clear,50,2013-03-24 15:53:00
12:53 PM,34.0,26.1,73,29.90,10.0,NE,15.0,20.7,N/A,,Clear,50,2013-03-24 16:53:00
1:53 PM,36.0,26.1,67,29.84,10.0,NE,16.1,21.9,N/A,,Partly Cloudy,50,2013-03-24 17:53:00
2:53 PM,37.0,24.1,59,29.81,10.0,ENE,16.1,25.3,N/A,,Mostly Cloudy,70,2013-03-24 18:53:00
3:53 PM,37.0,21.9,54,29.80,10.0,ENE,13.8,24.2,N/A,,Overcast,60,2013-03-24 19:53:00
4:53 PM,35.1,17.1,48,29.78,10.0,NE,15.0,24.2,N/A,,Overcast,50,2013-03-24 20:53:00
5:53 PM,34.0,18.0,52,29.75,10.0,NE,12.7,19.6,N/A,,Overcast,50,2013-03-24 21:53:00
6:53 PM,33.1,21.0,61,29.73,10.0,NE,13.8,26.5,N/A,,Mostly Cloudy,40,2013-03-24 22:53:00
7:53 PM,32.0,21.2,64,29.69,10.0,NE,13.8,21.9,N/A,,Partly Cloudy,40,2013-03-24 23:53:00
8:53 PM,32.0,23.0,69,29.70,10.0,NE,12.7,19.6,N/A,,Overcast,40,2013-03-25 00:53:00
9:53 PM,32.0,24.1,73,29.70,10.0,NE,11.5,-,N/A,,Overcast,40,2013-03-25 01:53:00
10:53 PM,32.0,23.0,69,29.67,10.0,NE,13.8,-,N/A,,Overcast,40,2013-03-25 02:53:00
11:53 PM,33.1,23.0,66,29.65,10.0,NE,12.7,23.0,N/A,,Overcast,50,2013-03-25 03:53:00